Regional Weather Roundup
Issued by NWS

Home | Current Version | Previous Version | Graphics & Text | Print | Product List | Glossary On
Versions: 1 2 3 4 5 6 7 8 9 10 11 12 13 14 15 16 17 18 19 20 21 22 23 24 25 26 27 28 29 30 31 32 33 34 35 36 37 38 39 40 41 42 43 44 45 46 47 48 49 50
654
ASUS45 KCYS 271610
RWRWY

WYOMING REGIONAL WEATHER ROUNDUP
NATIONAL WEATHER SERVICE CHEYENNE WY
1000 AM MDT MON MAR 27 2017

NOTE:  "FAIR" INDICATES FEW OR NO CLOUDS BELOW 12,000 FEET
WITH NO SIGNIFICANT WEATHER AND/OR OBSTRUCTIONS TO VISIBILITY.

WYZ001-271700-
YELLOWSTONE NATIONAL PARK

CITY           SKY/WX    TMP DP  RH WIND       PRES   REMARKS
LK YELLOWSTONE   N/A     29  28  96 VRB3      29.91S
W YELLOWSTONE  NOT AVBL

$$
WYZ002>013-054>058-071-098>099-271700-
NORTHERN WYOMING

CITY           SKY/WX    TMP DP  RH WIND       PRES   REMARKS
JACKSON        CLOUDY    36  34  93 S3        29.91R
CODY           PTSUNNY   45  26  47 NE3       29.86S
GREYBULL       CLOUDY    47  34  60 E5        29.84F
WORLAND        FAIR      49  34  56 SW5       29.85S
SHERIDAN       FAIR      51  36  56 N6        29.84S
BUFFALO        FAIR      50  31  48 N7        29.84S
GILLETTE       FAIR      44  36  73 S10       29.85R
HULETT         FAIR      48  36  61 N5        29.86S
NEWCASTLE      FAIR      45  36  70 S12G20    29.87S

$$
WYZ014>020-022>026-101>103-271700-
CENTRAL WYOMING

CITY           SKY/WX    TMP DP  RH WIND       PRES   REMARKS
BIG PINEY      FAIR      33  26  75 CALM      29.93F
PINEDALE       FAIR      32  23  69 N3        29.95S
DUBOIS         CLOUDY    41  19  42 W14G20    29.88R
LANDER         FAIR      44  25  47 SE6       29.86S
RIVERTON       FAIR      44  27  51 W7        29.87S
CASPER         FAIR      47  26  44 SW13      29.87S
DOUGLAS        FAIR      48  30  49 VRB3      29.87S

$$
WYZ021-027>030-104>119-271700-
SOUTHERN WYOMING

CITY           SKY/WX    TMP DP  RH WIND       PRES   REMARKS
EVANSTON       FAIR      37  31  78 VRB3      29.90F
KEMMERER         N/A     32  28  86 N5        29.92F WCI  27
ROCK SPRINGS   PTSUNNY   44  26  49 SW5       29.93S
DIXON            N/A     44  28  52 CALM      29.97S
RAWLINS        FAIR      44  23  43 SW13      29.93S
SARATOGA       FAIR      41  27  56 S3        29.94F
LARAMIE        FAIR      42  24  49 SW13      29.93S
CHEYENNE       CLOUDY    43  37  79 SW10      29.94S
TORRINGTON     FAIR      46  34  62 CALM      29.89F
PINE BLUFFS    FAIR      46  37  71 SW7       29.94S

$$




USA.gov is the U.S. government's official web portal to all federal, state and local government web resources and services.